| time (UTC) | temp C | wind direction | speed KPH | gust KPH | rain 1hr cm | rain 24hr cm | rain mn cm | humidity % | barometer mb |
| 20260505171558 | 3 | 0 | 1.6 | 3.2 | 0.03 | 0.38 | 0.30 | 91 | 1016.0 |
| 20260505171058 | 3 | 0 | 1.6 | 1.6 | 0.03 | 0.38 | 0.30 | 91 | 1015.9 |
| 20260505170557 | 3 | 1 | 0.0 | 1.6 | 0.03 | 0.38 | 0.30 | 92 | 1015.9 |
| 20260505170055 | 3 | 0 | 0.0 | 1.6 | 0.03 | 0.38 | 0.30 | 93 | 1015.8 |
| 20260505165557 | 3 | 0 | 0.0 | 1.6 | 0.05 | 0.38 | 0.30 | 93 | 1015.7 |
| 20260505165057 | 2 | 0 | 0.0 | 0.0 | 0.05 | 0.38 | 0.30 | 93 | 1016.0 |
| 20260505164556 | 2 | 0 | 0.0 | 0.0 | 0.05 | 0.38 | 0.30 | 93 | 1015.9 |
| 20260505164059 | 2 | 0 | 0.0 | 1.6 | 0.05 | 0.38 | 0.30 | 93 | 1015.9 |
| 20260505163557 | 2 | 0 | 0.0 | 1.6 | 0.05 | 0.38 | 0.30 | 93 | 1015.7 |
| 20260505163055 | 2 | 53 | 0.0 | 1.6 | 0.05 | 0.38 | 0.30 | 93 | 1015.7 |
| 20260505162558 | 2 | 0 | 0.0 | 1.6 | 0.05 | 0.38 | 0.30 | 93 | 1015.6 |
| 20260505162058 | 2 | 55 | 0.0 | 1.6 | 0.03 | 0.36 | 0.28 | 93 | 1015.6 |
| 20260505161558 | 2 | 55 | 0.0 | 0.0 | 0.05 | 0.36 | 0.28 | 92 | 1015.5 |
| 20260505161056 | 2 | 0 | 0.0 | 1.6 | 0.08 | 0.36 | 0.28 | 93 | 1015.4 |
| 20260505160558 | 2 | 0 | 0.0 | 3.2 | 0.08 | 0.36 | 0.28 | 93 | 1015.5 |
| 20260505153057 | 2 | 300 | 0.0 | 3.2 | 0.13 | 0.33 | 0.25 | 92 | 1015.0 |
| 20260505152601 | 2 | 0 | 0.0 | 1.6 | 0.15 | 0.33 | 0.25 | 92 | 1014.9 |
| 20260505152057 | 2 | 0 | 0.0 | 0.0 | 0.15 | 0.33 | 0.25 | 92 | 1014.7 |
| 20260505151557 | 2 | 0 | 0.0 | 0.0 | 0.15 | 0.30 | 0.23 | 92 | 1014.8 |
| 20260505151057 | 2 | 0 | 0.0 | 0.0 | 0.13 | 0.28 | 0.20 | 92 | 1014.7 |
| 20260505150557 | 1 | 0 | 0.0 | 0.0 | 0.13 | 0.28 | 0.20 | 92 | 1014.5 |
| 20260505140557 | 2 | 0 | 0.0 | 0.0 | 0.05 | 0.15 | 0.08 | 90 | 1014.2 |
| 20260505140123 | 2 | 0 | 0.0 | 0.0 | 0.03 | 0.13 | 0.05 | 90 | 1014.0 |
| 20260505130103 | 2 | 82 | 1.6 | 1.6 | 0.00 | 0.10 | 0.03 | 91 | 1013.3 |
| 20260505124602 | 2 | 157 | 0.0 | 1.6 | 0.00 | 0.10 | 0.03 | 92 | 1013.3 |
| 20260505124100 | 2 | 173 | 0.0 | 1.6 | 0.00 | 0.10 | 0.03 | 92 | 1013.3 |
| 20260505123557 | 2 | 0 | 0.0 | 0.0 | 0.00 | 0.10 | 0.03 | 92 | 1013.3 |
| 20260505123101 | 2 | 0 | 0.0 | 0.0 | 0.00 | 0.10 | 0.03 | 92 | 1013.2 |
| 20260505122557 | 2 | 0 | 0.0 | 0.0 | 0.00 | 0.10 | 0.03 | 92 | 1013.2 |
| 20260505122057 | 2 | 0 | 0.0 | 0.0 | 0.00 | 0.10 | 0.03 | 92 | 1013.3 |
| 20260505121601 | 2 | 0 | 0.0 | 1.6 | 0.00 | 0.10 | 0.03 | 92 | 1013.4 |
| 20260505121057 | 2 | 260 | 0.0 | 1.6 | 0.00 | 0.10 | 0.03 | 93 | 1013.4 |
| 20260505120557 | 2 | 0 | 0.0 | 1.6 | 0.00 | 0.10 | 0.03 | 93 | 1013.2 |
| 20260505120112 | 2 | 0 | 0.0 | 1.6 | 0.00 | 0.10 | 0.03 | 92 | 1013.5 |
| 20260505115556 | 2 | 0 | 0.0 | 1.6 | 0.00 | 0.10 | 0.03 | 92 | 1013.5 |
| 20260505115057 | 2 | 0 | 0.0 | 0.0 | 0.00 | 0.10 | 0.03 | 92 | 1013.4 |
| 20260505114601 | 2 | 0 | 0.0 | 0.0 | 0.00 | 0.10 | 0.03 | 92 | 1013.5 |
| 20260505114057 | 2 | 0 | 0.0 | 0.0 | 0.00 | 0.10 | 0.03 | 93 | 1013.5 |
| 20260505113601 | 2 | 0 | 0.0 | 0.0 | 0.00 | 0.10 | 0.03 | 93 | 1013.6 |
| 20260505113107 | 2 | 0 | 0.0 | 0.0 | 0.00 | 0.10 | 0.03 | 93 | 1013.5 |
| 20260505112558 | 2 | 0 | 0.0 | 0.0 | 0.00 | 0.10 | 0.03 | 93 | 1013.7 |
| 20260505112057 | 2 | 0 | 0.0 | 0.0 | 0.00 | 0.10 | 0.03 | 93 | 1013.7 |
| 20260505111559 | 2 | 0 | 0.0 | 0.0 | 0.00 | 0.10 | 0.03 | 93 | 1013.7 |
| 20260505111057 | 2 | 0 | 0.0 | 0.0 | 0.00 | 0.10 | 0.03 | 93 | 1013.7 |
| 20260505110557 | 2 | 0 | 0.0 | 0.0 | 0.00 | 0.10 | 0.03 | 93 | 1013.5 |
| 20260505102058 | 2 | 0 | 0.0 | 0.0 | 0.03 | 0.10 | 0.03 | 93 | 1013.5 |
| 20260505101604 | 2 | 0 | 0.0 | 0.0 | 0.03 | 0.10 | 0.03 | 93 | 1013.6 |
| 20260505101059 | 2 | 0 | 0.0 | 0.0 | 0.03 | 0.10 | 0.03 | 93 | 1013.7 |
| 20260505100559 | 2 | 0 | 0.0 | 0.0 | 0.03 | 0.10 | 0.03 | 93 | 1013.7 |
| 20260505100101 | 2 | 0 | 0.0 | 0.0 | 0.03 | 0.10 | 0.03 | 93 | 1013.7 |
| 20260505095559 | 2 | 0 | 0.0 | 0.0 | 0.03 | 0.10 | 0.03 | 93 | 1013.7 |
| 20260505095121 | 2 | 0 | 0.0 | 0.0 | 0.03 | 0.10 | 0.03 | 93 | 1013.7 |
| 20260505094602 | 2 | 0 | 0.0 | 0.0 | 0.03 | 0.10 | 0.03 | 93 | 1013.9 |
| 20260505094103 | 2 | 0 | 0.0 | 0.0 | 0.03 | 0.10 | 0.03 | 92 | 1014.0 |
| 20260505093559 | 2 | 0 | 0.0 | 0.0 | 0.03 | 0.10 | 0.03 | 92 | 1014.0 |
| 20260505093059 | 2 | 0 | 0.0 | 0.0 | 0.03 | 0.10 | 0.03 | 92 | 1014.1 |
| 20260505092559 | 2 | 0 | 0.0 | 1.6 | 0.00 | 0.08 | 0.00 | 92 | 1014.1 |
| 20260505092059 | 2 | 0 | 0.0 | 1.6 | 0.00 | 0.08 | 0.00 | 92 | 1014.1 |
| 20260505091611 | 2 | 156 | 0.0 | 1.6 | 0.00 | 0.08 | 0.00 | 92 | 1014.2 |
| 20260505091058 | 2 | 77 | 0.0 | 4.8 | 0.00 | 0.08 | 0.00 | 92 | 1014.4 |
| 20260505090559 | 2 | 72 | 0.0 | 4.8 | 0.00 | 0.08 | 0.00 | 92 | 1014.3 |
| 20260505085603 | 2 | 58 | 1.6 | 8.0 | 0.00 | 0.08 | 0.00 | 92 | 1014.4 |
| 20260505085059 | 2 | 54 | 3.2 | 8.0 | 0.00 | 0.08 | 0.00 | 92 | 1014.4 |
| 20260505084607 | 2 | 71 | 0.0 | 3.2 | 0.00 | 0.08 | 0.00 | 92 | 1014.5 |
| 20260505084059 | 2 | 72 | 0.0 | 6.4 | 0.00 | 0.08 | 0.00 | 92 | 1014.5 |
| 20260505083603 | 1 | 72 | 3.2 | 9.7 | 0.00 | 0.08 | 0.00 | 92 | 1014.5 |
| 20260505083107 | 1 | 79 | 4.8 | 9.7 | 0.00 | 0.08 | 0.00 | 92 | 1014.5 |
| 20260505082559 | 1 | 98 | 6.4 | 19.3 | 0.00 | 0.08 | 0.00 | 92 | 1014.6 |
| 20260505082058 | 1 | 129 | 4.8 | 19.3 | 0.00 | 0.08 | 0.00 | 91 | 1014.7 |
| 20260505081558 | 1 | 65 | 6.4 | 17.7 | 0.00 | 0.08 | 0.00 | 91 | 1014.6 |
| 20260505081059 | 2 | 91 | 4.8 | 16.1 | 0.00 | 0.08 | 0.00 | 90 | 1014.6 |
| 20260505080558 | 2 | 92 | 8.0 | 16.1 | 0.00 | 0.08 | 0.00 | 90 | 1014.7 |
| 20260505080057 | 2 | 72 | 6.4 | 17.7 | 0.00 | 0.08 | 0.00 | 90 | 1014.6 |
| 20260505075559 | 2 | 89 | 8.0 | 17.7 | 0.00 | 0.08 | 0.00 | 89 | 1014.6 |
| 20260505075059 | 2 | 74 | 8.0 | 19.3 | 0.00 | 0.08 | 0.00 | 88 | 1014.6 |
| 20260505074559 | 2 | 65 | 12.9 | 19.3 | 0.00 | 0.08 | 0.00 | 88 | 1014.7 |
| 20260505074057 | 2 | 79 | 6.4 | 14.5 | 0.00 | 0.08 | 0.00 | 87 | 1014.8 |
| 20260505073557 | 2 | 92 | 6.4 | 11.3 | 0.00 | 0.08 | 0.00 | 87 | 1014.7 |
| 20260505073103 | 2 | 82 | 3.2 | 14.5 | 0.00 | 0.08 | 0.00 | 87 | 1014.8 |
| 20260505072602 | 2 | 100 | 4.8 | 16.1 | 0.00 | 0.08 | 0.00 | 87 | 1014.7 |
| 20260505072100 | 2 | 86 | 6.4 | 16.1 | 0.00 | 0.08 | 0.00 | 86 | 1014.7 |
| 20260505071601 | 2 | 72 | 9.7 | 16.1 | 0.00 | 0.08 | 0.00 | 85 | 1014.7 |
| 20260505071058 | 3 | 82 | 3.2 | 11.3 | 0.00 | 0.08 | 0.00 | 84 | 1014.8 |
| 20260505070601 | 3 | 68 | 4.8 | 11.3 | 0.00 | 0.08 | 0.00 | 84 | 1014.8 |
| 20260505070106 | 3 | 77 | 4.8 | 11.3 | 0.00 | 0.08 | 0.00 | 83 | 1014.7 |
| 20260505065558 | 3 | 63 | 4.8 | 9.7 | 0.00 | 0.08 | 0.08 | 83 | 1014.7 |
| 20260505065057 | 3 | 93 | 3.2 | 6.4 | 0.00 | 0.08 | 0.08 | 82 | 1014.8 |
| 20260505064559 | 3 | 82 | 3.2 | 8.0 | 0.00 | 0.08 | 0.08 | 83 | 1014.8 |
| 20260505064057 | 3 | 229 | 3.2 | 9.7 | 0.00 | 0.08 | 0.08 | 83 | 1014.8 |
| 20260505063557 | 3 | 130 | 4.8 | 9.7 | 0.00 | 0.08 | 0.08 | 84 | 1014.8 |
| 20260505063059 | 3 | 101 | 1.6 | 11.3 | 0.00 | 0.08 | 0.08 | 86 | 1014.7 |
| 20260505062559 | 3 | 91 | 4.8 | 11.3 | 0.00 | 0.08 | 0.08 | 86 | 1015.0 |
| 20260505062101 | 3 | 70 | 4.8 | 12.9 | 0.00 | 0.08 | 0.08 | 86 | 1015.0 |
| 20260505061618 | 3 | 114 | 6.4 | 14.5 | 0.00 | 0.08 | 0.08 | 86 | 1015.0 |
| 20260505061057 | 3 | 98 | 6.4 | 16.1 | 0.00 | 0.08 | 0.08 | 87 | 1015.0 |
| 20260505060559 | 3 | 119 | 4.8 | 16.1 | 0.00 | 0.08 | 0.08 | 86 | 1015.0 |
| 20260505060103 | 3 | 139 | 6.4 | 14.5 | 0.00 | 0.08 | 0.08 | 86 | 1014.8 |
| 20260505055557 | 3 | 109 | 6.4 | 9.7 | 0.00 | 0.08 | 0.08 | 86 | 1014.9 |
| 20260505055058 | 3 | 120 | 4.8 | 8.0 | 0.00 | 0.08 | 0.08 | 85 | 1014.9 |
| 20260505054559 | 3 | 136 | 3.2 | 8.0 | 0.00 | 0.08 | 0.08 | 85 | 1014.9 |
| 20260505054057 | 3 | 115 | 3.2 | 8.0 | 0.00 | 0.08 | 0.08 | 85 | 1014.9 |
| 20260505053557 | 3 | 146 | 0.0 | 3.2 | 0.00 | 0.08 | 0.08 | 85 | 1014.8 |
| 20260505053059 | 3 | 68 | 0.0 | 3.2 | 0.00 | 0.08 | 0.08 | 84 | 1015.0 |
| 20260505052557 | 3 | 184 | 0.0 | 0.0 | 0.00 | 0.08 | 0.08 | 83 | 1014.7 |
| 20260505052058 | 4 | 0 | 0.0 | 1.6 | 0.00 | 0.08 | 0.08 | 83 | 1014.7 |
| 20260505051558 | 4 | 0 | 0.0 | 1.6 | 0.00 | 0.08 | 0.08 | 82 | 1014.7 |
| 20260505051058 | 4 | 0 | 0.0 | 0.0 | 0.00 | 0.08 | 0.08 | 81 | 1014.7 |
| 20260505050558 | 4 | 0 | 0.0 | 0.0 | 0.00 | 0.08 | 0.08 | 80 | 1014.8 |
| 20260505041604 | 5 | 140 | 1.6 | 3.2 | 0.00 | 0.08 | 0.08 | 77 | 1014.4 |
| 20260505041058 | 4 | 135 | 0.0 | 4.8 | 0.00 | 0.08 | 0.08 | 77 | 1014.4 |
| 20260505040558 | 4 | 101 | 1.6 | 4.8 | 0.00 | 0.08 | 0.08 | 78 | 1014.4 |
| 20260505040104 | 5 | 0 | 1.6 | 4.8 | 0.00 | 0.08 | 0.08 | 77 | 1014.3 |
| 20260505035557 | 5 | 117 | 0.0 | 4.8 | 0.00 | 0.08 | 0.08 | 76 | 1014.3 |
| 20260505035057 | 5 | 84 | 0.0 | 6.4 | 0.00 | 0.08 | 0.08 | 74 | 1014.2 |
| 20260505034609 | 5 | 68 | 0.0 | 8.0 | 0.00 | 0.08 | 0.08 | 75 | 1014.1 |
| 20260505034059 | 5 | 222 | 1.6 | 8.0 | 0.00 | 0.08 | 0.08 | 75 | 1014.2 |
| 20260505033557 | 5 | 135 | 3.2 | 8.0 | 0.00 | 0.08 | 0.08 | 78 | 1014.2 |
| 20260505033105 | 5 | 108 | 1.6 | 6.4 | 0.00 | 0.08 | 0.08 | 79 | 1014.1 |
| 20260505032558 | 5 | 63 | 1.6 | 8.0 | 0.00 | 0.08 | 0.08 | 80 | 1013.9 |
| 20260505032058 | 5 | 79 | 1.6 | 8.0 | 0.00 | 0.08 | 0.08 | 79 | 1013.7 |
| 20260505031558 | 5 | 113 | 4.8 | 9.7 | 0.00 | 0.08 | 0.08 | 79 | 1013.7 |
| 20260505031057 | 5 | 89 | 3.2 | 9.7 | 0.00 | 0.08 | 0.08 | 80 | 1013.7 |
| 20260505030558 | 5 | 68 | 1.6 | 8.0 | 0.00 | 0.08 | 0.08 | 79 | 1013.7 |
| 20260505030112 | 5 | 70 | 4.8 | 8.0 | 0.00 | 0.08 | 0.08 | 81 | 1013.6 |
| 20260505025557 | 5 | 71 | 3.2 | 4.8 | 0.03 | 0.08 | 0.08 | 80 | 1013.5 |
| 20260505025057 | 5 | 61 | 3.2 | 4.8 | 0.03 | 0.08 | 0.08 | 79 | 1013.5 |
| 20260505024602 | 5 | 70 | 0.0 | 3.2 | 0.05 | 0.08 | 0.08 | 77 | 1013.5 |
| 20260505024057 | 5 | 75 | 1.6 | 3.2 | 0.05 | 0.08 | 0.08 | 79 | 1013.6 |
| 20260505023557 | 5 | 0 | 0.0 | 1.6 | 0.08 | 0.08 | 0.08 | 81 | 1013.6 |
| 20260505023058 | 5 | 148 | 0.0 | 1.6 | 0.08 | 0.08 | 0.08 | 80 | 1013.6 |
| 20260505022558 | 5 | 159 | 0.0 | 4.8 | 0.08 | 0.08 | 0.08 | 80 | 1013.8 |
| 20260505022102 | 5 | 165 | 0.0 | 4.8 | 0.08 | 0.08 | 0.08 | 80 | 1013.8 |
| 20260505021603 | 5 | 182 | 1.6 | 4.8 | 0.08 | 0.08 | 0.08 | 81 | 1013.9 |
| 20260505021059 | 5 | 172 | 1.6 | 4.8 | 0.08 | 0.08 | 0.08 | 80 | 1013.9 |
| 20260505020600 | 5 | 167 | 3.2 | 4.8 | 0.08 | 0.08 | 0.08 | 80 | 1013.9 |
| 20260505020058 | 5 | 143 | 0.0 | 4.8 | 0.08 | 0.08 | 0.08 | 80 | 1014.2 |
| 20260505015558 | 5 | 0 | 0.0 | 4.8 | 0.05 | 0.05 | 0.05 | 78 | 1014.2 |
| 20260505015058 | 6 | 0 | 0.0 | 4.8 | 0.05 | 0.05 | 0.05 | 76 | 1014.2 |
| 20260505014557 | 6 | 210 | 0.0 | 6.4 | 0.03 | 0.03 | 0.03 | 75 | 1014.3 |
| 20260505014057 | 6 | 205 | 1.6 | 12.9 | 0.03 | 0.03 | 0.03 | 72 | 1014.2 |
| 20260505013639 | 7 | 241 | 3.2 | 14.5 | 0.00 | 0.00 | 0.00 | 67 | 1014.0 |
| 20260505013103 | 7 | 101 | 6.4 | 14.5 | 0.00 | 0.00 | 0.00 | 64 | 1013.7 |
| 20260505012557 | 7 | 300 | 4.8 | 14.5 | 0.00 | 0.00 | 0.00 | 64 | 1013.8 |
| 20260505012057 | 7 | 316 | 6.4 | 14.5 | 0.00 | 0.00 | 0.00 | 64 | 1013.7 |
| 20260505011618 | 8 | 290 | 6.4 | 17.7 | 0.00 | 0.00 | 0.00 | 61 | 1013.7 |
| 20260505011059 | 8 | 347 | 6.4 | 19.3 | 0.00 | 0.00 | 0.00 | 60 | 1013.5 |
| 20260505010557 | 8 | 83 | 9.7 | 19.3 | 0.00 | 0.00 | 0.00 | 60 | 1013.5 |
| 20260505010107 | 8 | 244 | 8.0 | 19.3 | 0.00 | 0.00 | 0.00 | 58 | 1013.3 |
| 20260505005558 | 8 | 29 | 6.4 | 19.3 | 0.00 | 0.00 | 0.00 | 59 | 1013.2 |
| 20260505005101 | 9 | 264 | 9.7 | 20.9 | 0.00 | 0.00 | 0.00 | 56 | 1013.0 |
| 20260505004601 | 10 | 301 | 11.3 | 20.9 | 0.00 | 0.00 | 0.00 | 55 | 1013.0 |
| 20260505004058 | 10 | 1 | 8.0 | 16.1 | 0.00 | 0.00 | 0.00 | 48 | 1012.7 |
| 20260505003557 | 11 | 303 | 6.4 | 14.5 | 0.00 | 0.00 | 0.00 | 49 | 1012.6 |
| 20260505003058 | 11 | 338 | 4.8 | 14.5 | 0.00 | 0.00 | 0.00 | 44 | 1012.6 |
| 20260505002557 | 11 | 341 | 3.2 | 16.1 | 0.00 | 0.00 | 0.00 | 43 | 1012.5 |
| 20260505002101 | 11 | 269 | 6.4 | 16.1 | 0.00 | 0.00 | 0.00 | 42 | 1012.5 |
| 20260505001558 | 12 | 291 | 6.4 | 16.1 | 0.00 | 0.00 | 0.00 | 42 | 1012.4 |
| 20260505001057 | 12 | 295 | 1.6 | 8.0 | 0.00 | 0.00 | 0.00 | 42 | 1012.6 |
| 20260505000557 | 12 | 0 | 0.0 | 11.3 | 0.00 | 0.00 | 0.00 | 41 | 1012.4 |
| 20260505000108 | 12 | 309 | 0.0 | 11.3 | 0.00 | 0.00 | 0.00 | 40 | 1012.5 |
| 20260504235558 | 12 | 139 | 1.6 | 14.5 | 0.00 | 0.00 | 0.00 | 41 | 1012.5 |
| 20260504235058 | 11 | 330 | 3.2 | 14.5 | 0.00 | 0.00 | 0.00 | 44 | 1012.6 |
| 20260504234607 | 11 | 264 | 3.2 | 20.9 | 0.00 | 0.00 | 0.00 | 46 | 1012.6 |
| 20260504234102 | 11 | 182 | 3.2 | 20.9 | 0.00 | 0.00 | 0.00 | 45 | 1012.7 |
| 20260504233558 | 11 | 242 | 3.2 | 20.9 | 0.00 | 0.00 | 0.00 | 44 | 1012.7 |
| 20260504233059 | 11 | 137 | 4.8 | 17.7 | 0.00 | 0.00 | 0.00 | 44 | 1012.6 |
| 20260504232558 | 11 | 236 | 4.8 | 14.5 | 0.00 | 0.00 | 0.00 | 45 | 1012.8 |
| 20260504232101 | 11 | 69 | 4.8 | 20.9 | 0.00 | 0.00 | 0.00 | 46 | 1012.7 |
| 20260504231557 | 11 | 262 | 4.8 | 20.9 | 0.00 | 0.00 | 0.00 | 48 | 1012.6 |
| 20260504231057 | 11 | 282 | 3.2 | 12.9 | 0.00 | 0.00 | 0.00 | 49 | 1012.9 |
| 20260504230558 | 11 | 259 | 1.6 | 11.3 | 0.00 | 0.00 | 0.00 | 48 | 1013.0 |
| 20260504230059 | 11 | 255 | 3.2 | 11.3 | 0.00 | 0.00 | 0.00 | 49 | 1013.3 |
| 20260504225558 | 11 | 297 | 3.2 | 12.9 | 0.00 | 0.00 | 0.00 | 48 | 1013.4 |
| 20260504225057 | 11 | 110 | 3.2 | 14.5 | 0.00 | 0.00 | 0.00 | 50 | 1013.5 |
| 20260504224602 | 11 | 143 | 4.8 | 20.9 | 0.00 | 0.00 | 0.00 | 51 | 1013.4 |
| 20260504224057 | 11 | 110 | 6.4 | 20.9 | 0.00 | 0.00 | 0.00 | 50 | 1013.5 |
| 20260504223557 | 11 | 205 | 3.2 | 17.7 | 0.00 | 0.00 | 0.00 | 50 | 1013.4 |
| 20260504223058 | 11 | 352 | 4.8 | 16.1 | 0.00 | 0.00 | 0.00 | 50 | 1013.5 |
| 20260504222558 | 11 | 181 | 4.8 | 17.7 | 0.00 | 0.00 | 0.00 | 48 | 1013.6 |
| 20260504222101 | 12 | 254 | 4.8 | 17.7 | 0.00 | 0.00 | 0.00 | 47 | 1013.5 |
| 20260504221602 | 12 | 46 | 4.8 | 16.1 | 0.00 | 0.00 | 0.00 | 45 | 1013.7 |
| 20260504221057 | 12 | 257 | 3.2 | 12.9 | 0.00 | 0.00 | 0.00 | 42 | 1013.6 |
| 20260504220558 | 12 | 294 | 1.6 | 12.9 | 0.00 | 0.00 | 0.00 | 42 | 1013.7 |
| 20260504220107 | 11 | 277 | 4.8 | 11.3 | 0.00 | 0.00 | 0.00 | 44 | 1013.7 |
| 20260504215559 | 11 | 174 | 3.2 | 11.3 | 0.00 | 0.00 | 0.00 | 44 | 1013.7 |
| 20260504215057 | 11 | 308 | 3.2 | 11.3 | 0.00 | 0.00 | 0.00 | 45 | 1013.9 |
| 20260504214559 | 11 | 72 | 1.6 | 6.4 | 0.00 | 0.00 | 0.00 | 46 | 1013.7 |
| 20260504214057 | 11 | 0 | 1.6 | 6.4 | 0.00 | 0.00 | 0.00 | 47 | 1013.8 |
| 20260504213557 | 11 | 309 | 1.6 | 6.4 | 0.00 | 0.00 | 0.00 | 45 | 1013.9 |
| 20260504213110 | 10 | 0 | 1.6 | 8.0 | 0.00 | 0.00 | 0.00 | 48 | 1013.8 |
| 20260504212558 | 10 | 338 | 1.6 | 8.0 | 0.00 | 0.00 | 0.00 | 50 | 1013.9 |
| 20260504212057 | 10 | 42 | 1.6 | 9.7 | 0.00 | 0.00 | 0.00 | 50 | 1013.8 |
| 20260504211558 | 10 | 323 | 4.8 | 11.3 | 0.00 | 0.00 | 0.00 | 53 | 1013.9 |
| 20260504211057 | 10 | 91 | 3.2 | 14.5 | 0.00 | 0.00 | 0.00 | 56 | 1013.9 |
| 20260504210600 | 10 | 85 | 3.2 | 14.5 | 0.00 | 0.00 | 0.00 | 54 | 1013.9 |
| 20260504210105 | 10 | 19 | 6.4 | 14.5 | 0.00 | 0.00 | 0.00 | 55 | 1013.7 |
| 20260504205559 | 10 | 17 | 4.8 | 11.3 | 0.00 | 0.00 | 0.00 | 54 | 1013.7 |
| 20260504205059 | 10 | 333 | 1.6 | 11.3 | 0.00 | 0.00 | 0.00 | 47 | 1013.5 |
| 20260504204603 | 10 | 50 | 1.6 | 11.3 | 0.00 | 0.00 | 0.00 | 52 | 1013.5 |
| 20260504204059 | 10 | 271 | 1.6 | 16.1 | 0.00 | 0.00 | 0.00 | 53 | 1013.7 |
| 20260504203557 | 10 | 173 | 4.8 | 17.7 | 0.00 | 0.00 | 0.00 | 52 | 1013.7 |
| 20260504203059 | 10 | 67 | 3.2 | 17.7 | 0.00 | 0.00 | 0.00 | 50 | 1013.8 |
| 20260504202557 | 10 | 235 | 4.8 | 16.1 | 0.00 | 0.00 | 0.00 | 51 | 1013.5 |
| 20260504202057 | 9 | 219 | 1.6 | 17.7 | 0.00 | 0.00 | 0.00 | 53 | 1013.5 |
| 20260504201558 | 9 | 198 | 3.2 | 17.7 | 0.00 | 0.00 | 0.00 | 52 | 1013.7 |
| 20260504201058 | 8 | 255 | 3.2 | 9.7 | 0.00 | 0.00 | 0.00 | 53 | 1013.9 |
| 20260504200558 | 8 | 250 | 3.2 | 9.7 | 0.00 | 0.00 | 0.00 | 55 | 1014.1 |
| 20260504200057 | 8 | 160 | 1.6 | 8.0 | 0.00 | 0.00 | 0.00 | 55 | 1014.3 |
| 20260504195557 | 8 | 252 | 1.6 | 11.3 | 0.00 | 0.00 | 0.00 | 55 | 1014.2 |
| 20260504195056 | 8 | 229 | 3.2 | 12.9 | 0.00 | 0.00 | 0.00 | 55 | 1014.6 |
| 20260504194559 | 8 | 238 | 1.6 | 12.9 | 0.00 | 0.00 | 0.00 | 55 | 1014.5 |
| 20260504194058 | 9 | 112 | 1.6 | 8.0 | 0.00 | 0.00 | 0.00 | 50 | 1014.4 |
| 20260504193558 | 9 | 200 | 0.0 | 8.0 | 0.00 | 0.00 | 0.00 | 48 | 1014.3 |
| 20260504193113 | 9 | 253 | 0.0 | 8.0 | 0.00 | 0.00 | 0.00 | 48 | 1014.4 |
| 20260504192557 | 9 | 59 | 3.2 | 8.0 | 0.00 | 0.00 | 0.00 | 49 | 1014.5 |
| 20260504192059 | 10 | 293 | 1.6 | 9.7 | 0.00 | 0.00 | 0.00 | 47 | 1014.4 |
| 20260504191555 | 10 | 251 | 1.6 | 9.7 | 0.00 | 0.00 | 0.00 | 48 | 1014.2 |
| 20260504191057 | 10 | 336 | 3.2 | 9.7 | 0.00 | 0.00 | 0.00 | 46 | 1014.2 |
| 20260504190601 | 10 | 315 | 1.6 | 9.7 | 0.00 | 0.00 | 0.00 | 44 | 1014.1 |
| 20260504190107 | 10 | 278 | 3.2 | 9.7 | 0.00 | 0.00 | 0.00 | 46 | 1014.1 |
| 20260504185557 | 11 | 4 | 1.6 | 9.7 | 0.00 | 0.00 | 0.00 | 44 | 1014.1 |
| 20260504185057 | 11 | 330 | 1.6 | 16.1 | 0.00 | 0.00 | 0.00 | 46 | 1014.1 |
| 20260504184555 | 10 | 280 | 1.6 | 17.7 | 0.00 | 0.00 | 0.00 | 46 | 1014.0 |
| 20260504184101 | 10 | 288 | 4.8 | 17.7 | 0.00 | 0.00 | 0.00 | 48 | 1014.0 |
| 20260504183558 | 10 | 307 | 3.2 | 11.3 | 0.00 | 0.00 | 0.00 | 48 | 1013.9 |
| 20260504183102 | 10 | 6 | 4.8 | 11.3 | 0.00 | 0.00 | 0.00 | 50 | 1014.0 |
| 20260504182557 | 10 | 266 | 0.0 | 8.0 | 0.00 | 0.00 | 0.00 | 53 | 1014.0 |
| 20260504182057 | 10 | 0 | 1.6 | 12.9 | 0.00 | 0.00 | 0.00 | 51 | 1014.0 |
| 20260504181558 | 10 | 6 | 3.2 | 12.9 | 0.00 | 0.00 | 0.00 | 51 | 1014.0 |
| 20260504181057 | 10 | 23 | 6.4 | 12.9 | 0.00 | 0.00 | 0.00 | 52 | 1013.9 |
| 20260504180602 | 11 | 340 | 3.2 | 12.9 | 0.00 | 0.00 | 0.00 | 52 | 1013.7 |
| 20260504180140 | 11 | 334 | 4.8 | 14.5 | 0.00 | 0.00 | 0.00 | 51 | 1013.7 |
| 20260504175559 | 11 | 295 | 6.4 | 14.5 | 0.00 | 0.00 | 0.00 | 51 | 1013.6 |
| 20260504175057 | 11 | 148 | 4.8 | 12.9 | 0.00 | 0.00 | 0.00 | 50 | 1013.4 |
| 20260504174555 | 12 | 243 | 4.8 | 12.9 | 0.00 | 0.00 | 0.00 | 49 | 1013.4 |
| 20260504174059 | 12 | 335 | 4.8 | 14.5 | 0.00 | 0.00 | 0.00 | 47 | 1013.5 |
| 20260504173555 | 13 | 82 | 6.4 | 14.5 | 0.00 | 0.00 | 0.00 | 45 | 1013.5 |
| 20260504173055 | 14 | 355 | 4.8 | 14.5 | 0.00 | 0.00 | 0.00 | 45 | 1013.2 |
| 20260504172558 | 14 | 286 | 4.8 | 9.7 | 0.00 | 0.00 | 0.00 | 43 | 1013.2 |
| 20260504172057 | 14 | 11 | 3.2 | 11.3 | 0.00 | 0.00 | 0.00 | 43 | 1013.1 |